Terminal Aerodrome Forecast
Issued by NWS Glasgow, MT

Home | Current Version | Previous Version | Text Only | Print | Product List | Glossary On
Versions: 1 2 3 4 5 6 7 8 9 10 11 12 13
000
FTUS45 KGGW 300500
TAFGGW
TAF
KGGW 300520Z 3006/3106 09007KT P6SM FEW250
     FM302100 VRB03KT P6SM FEW210=

USA.gov is the U.S. government's official web portal to all federal, state and local government web resources and services.